User: anonymous   Login
Location: Bothwell
(42.3833°S, 147.0000°E)
Time: 05:29:41
(UTC+11:00)
Language:

CUTE-I - Orbit

View from above orbital plane
View from above orbital plane
View from above satellite
View from above satellite

Ground track
Ground track

The orbit data is extracted from the following two-line orbital elements,

1 27844U 03031E   24052.94676872  .00000549  00000-0  26250-3 0  9990
2 27844  98.6797  61.5966 0010760 119.1232 241.1025 14.23089490 71259
Epoch (UTC): 21 February 2024 22:43:20
Eccentricity: 0.0010760
inclination: 98.6797°
perigee height: 807 km
apogee height: 822 km
right ascension of ascending node: 61.5966°
argument of perigee: 119.1232°
revolutions per day: 14.23089490
mean anomaly at epoch: 241.1025°
orbit number at epoch: 7125

The dashed part of the orbit path shows where the satellite is in the earth's shadow,  

DLR